Regional Weather Roundup
Issued by NWS

Home | Current Version | Previous Version | Graphics & Text | Print | Product List | Glossary On
Versions: 1 2 3 4 5 6 7 8 9 10 11 12 13 14 15 16 17 18 19 20 21 22 23 24 25 26 27 28 29 30 31 32 33 34 35 36 37 38 39 40 41 42 43 44 45 46 47 48 49 50
000
ASUS43 KLOT 300404
RWRIL

ILLINOIS REGIONAL WEATHER ROUNDUP
NATIONAL WEATHER SERVICE CHICAGO/ROMEOVILLE IL
1100 PM CDT SUN MAY 29 2016

NOTE: "FAIR" INDICATES FEW OR NO CLOUDS BELOW 12,000 FEET WITH NO
SIGNIFICANT WEATHER AND/OR OBSTRUCTIONS TO VISIBILITY.

* THESE STATIONS ARE NOT UNDER NWS QUALITY CONTROL. THEY ALSO MAY NOT
  REPORT WEATHER SUCH AS PRECIPITATION OR FOG.

ILZ001-002-007-009-015-016-024-300500-
NORTHWEST ILLINOIS

CITY           SKY/WX    TMP DP  RH WIND       PRES   REMARKS
MOLINE         CLEAR     71  56  58 SW7       30.02R
STERLING*      PTCLDY    69  60  73 SW3       30.03R
$$

ILZ003-004-008-010-011-017-018-300500-
NORTH CENTRAL ILLINOIS

CITY           SKY/WX    TMP DP  RH WIND       PRES   REMARKS
ROCKFORD       CLEAR     69  58  67 SW3       30.02S
FREEPORT*      CLEAR     66  57  72 SW6       30.03R
ROCHELLE*      CLEAR     66  61  84 SW6       30.03R
DE KALB*       CLEAR     68  58  70 W7        30.03R
$$

ILZ005-006-012>014-019>023-300500-
NORTHEAST ILLINOIS

CITY           SKY/WX    TMP DP  RH WIND       PRES   REMARKS
CHICAGO-OHARE  PTCLDY    70  58  65 W6        30.00R
CHICAGO-MIDWAY PTCLDY    73  57  57 W6        30.00R
AURORA         CLEAR     66  61  84 W3        30.02R
LANSING*       CLEAR     66  56  71 CALM      30.01R
WAUKEGAN       MOCLDY    70  58  65 W3        29.98S
DUPAGE AIRPORT CLEAR     66  57  72 W5        30.00S
WHEELING       CLEAR     71  56  58 W3        30.00S
MORRIS*        CLEAR     67  56  66 W5        30.01S
NORTHERLY ISL    N/A     75  54  47 W3          N/A
NORTHERLY ISL    N/A     75  54  47 W3          N/A
$$

LMZ740>746-300500-
SOUTHERN LAKE MICHIGAN

STATION/POSITION SKY/WX   TEMP    WIND        PRES    VSBY  WAVE
                          AIR SEA DIR/SP/G                  HT/PER
                          (F)     (DEG/KT/KT) (MB)    (MI)  (FT/S)
SOUTHERN BUOY              57 51  230/  8/  8 1014.3          1
WILMETTE HARBOR            65 54  250/  4/  4   N/A           0
HARRISON CRIB              77     260/ 10/ 12   N/A
BURNHAM HARBOR             74     260/  4/  8   N/A
CALUMET HARBOR             75                   N/A
BURNS HARBOR               67     250/  7/ 12 1016.3R
MICHIGAN CITY              68     220/  9/ 11   N/A
MICHIGAN CITY 6N           62 59  250/  4/  8   N/A           1
ST. JOSEPH                 63 62  220/  4/  6   N/A           1
$$

ILZ025>027-034>036-040-047-049-050-058-095>099-300500-
WEST-CENTRAL ILLINOIS

CITY           SKY/WX    TMP DP  RH WIND       PRES   REMARKS
QUINCY         CLOUDY    68  59  73 S5        30.06R
MACOMB*        CLOUDY    66  61  84 CALM      30.07R
PITTSFIELD*    CLOUDY    71  64  79 CALM      30.07S
$$

ILZ028>032-037-038-041>044-048-051>054-059>061-300500-
CENTRAL ILLINOIS

CITY           SKY/WX    TMP DP  RH WIND       PRES   REMARKS
BLOOMINGTON    CLEAR     71  62  73 W7        30.06R
DECATUR        PTCLDY    67  59  75 CALM      30.05R
PEORIA         CLEAR     68  57  68 CALM      30.04R
LINCOLN*       CLEAR     74  59  59 CALM      30.05S
SPRINGFIELD    PTCLDY    68  60  75 CALM      30.05S
TAYLORVILLE    NOT AVBL
$$

ILZ033-039-045-046-055>057-062-063-300500-
EAST-CENTRAL ILLINOIS

CITY           SKY/WX    TMP DP  RH WIND       PRES   REMARKS
CHAMPAIGN      CLEAR     71  57  61 W5        30.05R
MATTOON        CLEAR     68  55  63 W3        30.05R
$$

ILZ079-100>102-300500-
SOUTHWEST ILLINOIS

CITY           SKY/WX    TMP DP  RH WIND       PRES   REMARKS
ALTON          CLEAR     68  61  78 CALM      30.06S
BELLEVILLE     PTCLDY    69  65  88 CALM      30.04F
CAHOKIA*       CLEAR     69  63  81 CALM      30.05S
SPARTA*        CLOUDY    73  64  73 CALM      30.07S
$$

ILZ064>066-069>071-074>076-080>082-084>086-088>090-092>094-300500-
SOUTH-CENTRAL ILLINOIS

CITY           SKY/WX    TMP DP  RH WIND       PRES   REMARKS
CARBONDALE     PTCLDY    67  64  90 CALM      30.06S
CAIRO*         CLEAR     69  68  96 CALM      30.05F
EFFINGHAM*     PTCLDY    68  64  88 CALM      30.06F
MT. VERNON     MOCLDY    66  63  88 CALM      30.06F
SALEM*         MOCLDY    71  65  80 CALM      30.06S
$$

ILZ067-068-072-073-078-083-087-091-300500-
SOUTHEAST ILLINOIS

CITY           SKY/WX    TMP DP  RH WIND       PRES   REMARKS
LAWRENCEVILLE  CLOUDY    71  64  78 CALM      30.04S
FLORA*         MOCLDY    73  62  68 W3        30.05S
HARRISBURG*    CLEAR     70  63  77 CALM      30.05F
ROBINSON*      MOCLDY    70  62  74 W6        30.05S
CARMI*         PTCLDY    69  64  85 W3        30.04S
$$

ABBREVIATIONS USED IN REMARKS
   TC - TEMPERATURE IN CELSIUS
  WCI - WIND CHILL INDEX
   HX - HEAT INDEX
  VSB - VISIBILITY
$$





USA.gov is the U.S. government's official web portal to all federal, state and local government web resources and services.